This demonstration page uses our WeatherBlox Daily Observations layout. Learn more.

Left ArrowRight Arrow

53.62937, 11.41316

Hourly Observations for June 19, 2019

Temp ( °F °C ) Dew Point ( °F °C ) Humidity (%) Winds ( mph kmh ) Pressure ( in mb ) Visibility ( mi km ) Precip ( " mm )
6:50 am 06:50 Mostly Sunny 68 20 57 14 69 69 SE 3 6 29.82 1010 7 11 N/A
7:20 am 07:20 Mostly Sunny 68 20 57 14 69 69 SE 5 7 29.82 1010 7 11 N/A
7:50 am 07:50 Mostly Sunny 70 21 59 15 69 69 SE 5 7 29.82 1010 7 11 N/A
8:20 am 08:20 Mostly Sunny 72 22 59 15 65 65 SE 6 9 29.79 1009 7 11 N/A
8:50 am 08:50 Mostly Sunny 72 22 59 15 65 65 SE 6 9 29.79 1009 7 11 N/A
9:20 am 09:20 Mostly Sunny 73 23 61 16 65 65 SSE 6 9 29.79 1009 7 11 N/A
9:50 am 09:50 Mostly Sunny 75 24 61 16 61 61 SE 6 9 29.79 1009 7 11 N/A
10:20 am 10:20 Mostly Sunny 77 25 61 16 57 57 SSE 7 11 29.79 1009 7 11 N/A
10:50 am 10:50 Mostly Sunny 81 27 63 17 54 54 ESE 6 9 29.79 1009 7 11 N/A
11:20 am 11:20 Mostly Sunny 81 27 63 17 54 54 SSE 7 11 29.79 1009 7 11 N/A
11:50 am 11:50 Mostly Sunny 82 28 61 16 48 48 SE 7 11 29.76 1008 7 11 N/A
12:20 pm 12:20 Mostly Sunny 84 29 63 17 48 48 SE 7 11 29.76 1008 7 11 N/A
12:50 pm 12:50 Mostly Sunny 84 29 61 16 45 45 SE 8 13 29.76 1008 7 11 N/A
1:20 pm 13:20 Mostly Sunny 84 29 59 15 43 43 SE 9 15 29.76 1008 7 11 N/A
1:50 pm 13:50 Mostly Sunny 86 30 57 14 38 38 SE 9 15 29.76 1008 7 11 N/A
2:20 pm 14:20 Mostly Sunny 86 30 59 15 40 40 SE 9 15 29.73 1007 7 11 N/A
2:50 pm 14:50 Mostly Sunny 86 30 61 16 43 43 SSE 9 15 29.73 1007 7 11 N/A
3:20 pm 15:20 Mostly Sunny 86 30 59 15 40 40 SE 9 15 29.73 1007 7 11 N/A
3:50 pm 15:50 Mostly Sunny 86 30 61 16 43 43 SE 7 11 29.70 1006 7 11 N/A
4:20 pm 16:20 Mostly Sunny 88 31 59 15 38 38 S 7 11 29.70 1006 7 11 N/A
4:50 pm 16:50 Mostly Sunny 86 30 57 14 38 38 SE 9 15 29.70 1006 7 11 N/A
5:20 pm 17:20 Mostly Sunny 86 30 59 15 40 40 SSE 6 9 29.70 1006 7 11 N/A
5:50 pm 17:50 Mostly Sunny 84 29 59 15 43 43 SE 6 9 29.68 1005 7 11 N/A
6:20 pm 18:20 Mostly Sunny 84 29 61 16 45 45 SSW 3 6 29.68 1005 7 11 N/A
6:50 pm 18:50 Mostly Cloudy with Nearby Thunderstorms 82 28 61 16 48 48 SE 5 7 29.68 1005 30 48 N/A
7:20 pm 19:20 Mostly Cloudy with Thunderstorms 70 21 59 15 69 69 S 16 26 29.74 1007 30 48 N/A
7:50 pm 19:50 Partly Cloudy with Nearby Thunderstorms 66 19 61 16 83 83 NNE 5 7 29.71 1006 30 48 N/A
8:20 pm 20:20 Mostly Sunny 68 20 61 16 78 78 WNW 5 7 29.71 1006 7 11 N/A
8:50 pm 20:50 Mostly Sunny 66 19 61 16 83 83 NW 3 6 29.71 1006 7 11 N/A

Powered by AerisWeather